Location: Newark
(42.9260°N, 89.3850°W)
Time: 02:55:54
(UTC+00:00)

Envisat - Visible Passes

Search period start: 10 December 2019 00:00
Search period end: 20 December 2019 00:00
Orbit: 764 x 766 km, 98.1° (Epoch: 09 December)

Date Brightness Start Highest point End Pass type
(mag) Time Alt. Az. Time Alt. Az. Time Alt. Az.
10 Dec 5.2 00:55:38 10° SSW 00:59:43 24° W 01:03:49 10° NW visible
10 Dec 6.1 11:25:28 10° ENE 11:27:51 13° E 11:30:13 10° ESE visible
11 Dec 3.8 00:17:47 10° S 00:22:44 53° W 00:27:42 10° NNW visible
11 Dec 4.1 12:25:40 10° NNE 12:30:37 50° E 12:35:32 10° S visible
11 Dec 2.9 23:40:54 10° SSE 23:45:56 72° ENE 23:51:01 10° N visible
12 Dec 6.0 01:22:55 10° WSW 01:25:28 14° W 01:28:04 10° WNW visible
12 Dec 5.6 11:49:36 10° NE 11:53:37 23° E 11:57:37 10° SE visible
12 Dec 3.6 23:04:50 10° SE 23:09:21 33° ENE 23:13:52 10° N visible
13 Dec 4.9 00:43:55 10° SSW 00:48:21 30° W 00:52:49 10° NW visible
13 Dec 6.5 11:16:16 10° E 11:16:24 10° E 11:16:33 10° E visible
14 Dec 3.3 00:06:23 10° S 00:11:25 67° WSW 00:16:30 10° NNW visible
14 Dec 4.6 12:14:31 10° NNE 12:19:18 40° E 12:24:03 10° SSE visible
14 Dec 3.0 23:29:44 10° SSE 23:34:41 57° ENE 23:39:40 10° N visible
15 Dec 5.7 01:10:43 10° SW 01:14:04 18° W 01:17:27 10° NW visible
15 Dec 5.9 11:38:44 10° NE 11:42:14 18° E 11:45:43 10° SE visible
15 Dec 3.9 22:53:56 10° ESE 22:58:09 27° ENE 23:02:24 10° N visible
16 Dec 4.4 00:32:18 10° SSW 00:37:00 38° W 00:41:44 10° NNW visible
16 Dec 3.4 12:39:46 10° NNE 12:44:52 70° ESE 12:49:55 10° S visible
16 Dec 3.0 23:55:03 10° SSE 00:00:08 84° WSW 00:05:15 10° NNW visible
17 Dec 5.0 12:03:25 10° NNE 12:07:57 32° E 12:12:26 10° SSE visible
17 Dec 3.3 23:18:39 10° SE 23:23:28 45° ENE 23:28:18 10° N visible
18 Dec 5.4 00:58:46 10° SW 01:02:41 22° W 01:06:37 10° NW visible
18 Dec 6.0 11:28:04 10° NE 11:30:50 15° E 11:33:35 10° ESE visible
19 Dec 4.0 00:20:47 10° S 00:25:40 48° W 00:30:36 10° NNW visible
19 Dec 3.9 12:28:33 10° NNE 12:33:34 55° E 12:38:31 10° S visible
19 Dec 2.9 23:43:48 10° SSE 23:48:52 78° ENE 23:53:57 10° N visible
